Regional Weather Roundup
Issued by NWS

Home | Current Version | Previous Version | Text Only | Print | Product List | Glossary On
Versions: 1 2 3 4 5 6 7 8 9 10 11 12 13 14 15 16 17 18 19 20 21 22 23 24 25 26 27 28 29 30 31 32 33 34 35 36 37 38 39 40 41 42 43 44 45 46 47 48 49 50
000
ASUS42 KFFC 291203
RWRGA
WEATHER ROUNDUP FOR GEORGIA
NATIONAL WEATHER SERVICE PEACHTREE CITY GA
700 AM EST MON DEC 29 2014

NOTE: "FAIR" INDICATES FEW OR NO CLOUDS BELOW 12,000 FEET WITH NO
SIGNIFICANT WEATHER AND/OR OBSTRUCTIONS TO VISIBILITY.

* = USE WITH CAUTION. THE STATIONS MARKED WITH AN ASTERISK MAY NOT
REPORT WEATHER SUCH AS PRECIPITATION, FOG, OR THUNDER AND ARE NOT
QUALITY CONTROLLED BY NWS.

THE REMARK "TC" DENOTES TEMPERATURE READING IN DEGREES CELSIUS.

GAZ001>058-291300-
NORTH GEORGIA

CITY           SKY/WX    TMP DP  RH WIND       PRES   REMARKS
ATLANTA        MOCLDY    54  53  97 CALM      30.03S
6HR MIN TEMP:  54; 6HR MAX TEMP:  58; 6HR PCP:  0.14;

ATHENS         CLOUDY    54  53  97 CALM      30.03S
6HR MIN TEMP:  54; 6HR MAX TEMP:  57; 6HR PCP:  0.29;

CHAMBLEE       CLOUDY    52  52 100 CALM      30.03R
6HR MIN TEMP:  52; 6HR MAX TEMP:  57; 6HR PCP:  0.11;

PEACHTREE CITY CLOUDY    54  53  97 CALM      30.03F
6HR MIN TEMP:  53; 6HR MAX TEMP:  58; 6HR PCP:  0.20;

ROME           CLOUDY    52  51  97 NW3       30.06R
6HR MIN TEMP:  52; 6HR MAX TEMP:  54; 6HR PCP:  0.19;

WEST ATLANTA   CLOUDY    52  51  97 CALM      30.03S FOG
6HR MIN TEMP:  52; 6HR MAX TEMP:  58; 6HR PCP:  0.10;

GAINESVILLE    CLOUDY    52  52 100 CALM      30.05R
6HR MIN TEMP:  52; 6HR MAX TEMP:  56; 6HR PCP:  0.06;

CARTERSVILLE   CLOUDY    52  51  97 N3        30.05R FOG
6HR MIN TEMP:  51; 6HR MAX TEMP:  54; 6HR PCP:  0.23;



CITY           SKY/WX    TMP DP  RH WIND       PRES   REMARKS
DALTON*        CLOUDY    48  48 100 N3        30.06R
LAWRENCEVILLE* CLOUDY    52  46  82 CALM      30.02
MARIETTA       MOCLDY    52  52 100 NW1       30.03R
KENNESAW*      MOCLDY    52  48  87 N3        30.05
$$

GAZ059>098-102>109-291300-
CENTRAL GEORGIA

CITY           SKY/WX    TMP DP  RH WIND       PRES   REMARKS
AUGUSTA-BUSH   LGT RAIN  59  58  96 NW10      30.04R
6HR MIN TEMP:  58; 6HR MAX TEMP:  60; 6HR PCP:  0.04;

AUGUSTA-DANIEL LGT RAIN  59  57  93 NW10      30.05R
6HR MIN TEMP:  59; 6HR MAX TEMP:  62; 6HR PCP:  0.10;

COLUMBUS       CLOUDY    56  54  93 SE7       30.02F
6HR MIN TEMP:  56; 6HR MAX TEMP:  61; 6HR PCP:  0.02;

MACON          CLOUDY    56  55  97 CALM      30.06R
6HR MIN TEMP:  56; 6HR MAX TEMP:  63; 6HR PCP:  0.47;

ROBINS AFB     CLOUDY    57  54  91 N2        30.06R


CITY           SKY/WX    TMP DP  RH WIND       PRES   REMARKS
LAGRANGE*      CLOUDY    57  57  98 CALM      30.01F
SYLVANIA*      CLOUDY    61  61 100 CALM      30.03R FOG
MILLEDGEVILLE* CLOUDY    57  55  94 CALM      30.05S
$$

GAZ099>101-110>166-291300-
SOUTH GEORGIA

CITY           SKY/WX    TMP DP  RH WIND       PRES   REMARKS
SAVANNAH       CLOUDY    63  61  93 SW8       30.05R
6HR MIN TEMP:  59; 6HR MAX TEMP:  63;

VALDOSTA       CLOUDY    67  65  93 S7        30.04S
6HR MIN TEMP:  65; 6HR MAX TEMP:  67;

ALMA           CLOUDY    65  63  93 S6        30.03R
6HR MIN TEMP:  62; 6HR MAX TEMP:  65;

ST SIMONS      CLOUDY    63  62  97 SW6       30.05S FOG
6HR MIN TEMP:  63; 6HR MAX TEMP:  67;

FT STEWART     CLOUDY    64  62  94 S5        30.04R
ALBANY         HVY RAIN  63  61  93 N13G21    30.07R FOG
HUNTER AFB     CLOUDY    63  63 100 SW3       30.03R
MOODY AFB      CLOUDY    66  64  94 S8        30.04
BRUNSWICK      CLOUDY    63  61  94 SW5       30.06R


CITY           SKY/WX    TMP DP  RH WIND       PRES   REMARKS
BAINBRIDGE*    HVY RAIN  68  66  94 N3        30.02F
MOULTRIE*      CLOUDY    66  66 100 CALM      30.05R
VIDALIA*       CLOUDY    63  63 100 SW9       30.03S
WAYCROSS*      CLOUDY    68  67  98 SW6       30.05R
DOUGLAS*       CLOUDY    68  64  88 SW6       30.05R
$$


USA.gov is the U.S. government's official web portal to all federal, state and local government web resources and services.